User: anonymous   Login
Location: Roanoke
(37.2710°N, 79.9420°W)
Time: 05:15:11
(UTC-05:00)
Language:

FENGYUN 3A - Orbit

View from above orbital plane
View from above orbital plane
View from above satellite
View from above satellite

Ground track
Ground track

The orbit data is extracted from the following two-line orbital elements,

1 32958U 08026A   16338.84444715  .00000047  00000-0  41875-4 0  9991
2 32958  98.4321  11.0616 0010412 123.4761 236.7411 14.19641635441624
Epoch (UTC): 03 December 2016 20:16:00
Eccentricity: 0.0010412
inclination: 98.4321°
perigee height: 819 km
apogee height: 834 km
right ascension of ascending node: 11.0616°
argument of perigee: 123.4761°
revolutions per day: 14.19641635
mean anomaly at epoch: 236.7411°
orbit number at epoch: 44162

The dashed part of the orbit path shows where the satellite is in the earth's shadow,  

DLR